Location: Baia Mare
(47.6567°N, 23.5850°E)
Time: 14:32:08
(UTC+03:00)

ISS - Pass Details

Date: 16 July 2019
Orbit: 409 x 418 km, 51.6° (Epoch: 21 July)

Event Time Altitude Azimuth Distance (km) Brightness Sun altitude
Rises 04:09:08 0° 293° (WNW) 2,347 -0.1 -12.4°
Reaches altitude 10° 04:11:14 10° 295° (WNW) 1,481 -1.1 -12.2°
Maximum altitude 04:14:34 80° 21° (NNE) 422 -3.7 -11.8°
Drops below altitude 10° 04:17:52 10° 110° (ESE) 1,472 -0.7 -11.5°
Sets 04:19:57 0° 112° (ESE) 2,331 0.3 -11.3°
